Location: Bayside Village
(37.7830°N, 122.3897°W)
Time: 19:05:07
(UTC+00:00)

Daily predictions for brighter satellites

Satellite Brightness Start Highest point End
(mag) Time Altitude Azimuth Time Altitude Azimuth Time Altitude Azimuth
MSX 4.0 12:01:37 10° NNE 12:07:20 69° ESE 12:12:30 13° S
USA 234 3.7 12:11:03 10° ESE 12:17:26 60° NE 12:22:01 20° NW
NOSS 3-4 (A) 3.3 12:18:27 59° WNW 12:18:51 61° NW 12:25:05 10° NNE
NOSS 3-4 (C) 3.3 12:18:29 60° WNW 12:18:56 62° NW 12:25:11 10° NNE
Cosmos 44 3.1 12:22:15 63° NNE 12:22:44 71° ENE 12:27:01 10° SE
SL-16 R/B 3.1 12:18:37 10° S 12:24:01 49° ESE 12:29:28 10° NNE
Cosmos 292 Rocket 3.6 12:24:16 75° WSW 12:24:16 75° WSW 12:28:58 10° S
Cosmos 2074 Rocket 3.8 12:21:16 10° SSW 12:27:29 74° W 12:33:43 10° N
Cosmos 1023 Rocket 4.3 12:27:15 42° SSW 12:29:05 83° WNW 12:34:15 10° NNE
Cosmos 1606 Rocket 4.5 12:26:43 10° N 12:30:54 47° E 12:35:04 10° SSE
H-2A R/B 2.5 12:29:17 10° N 12:33:14 65° NW 12:33:14 65° NW
Milstar 3 4.2 12:30:21 17° SSW 12:34:22 28° SSE 12:40:01 10° ESE
IDEFIX/ARIANE 42P 3.0 12:29:56 10° N 12:34:10 40° NW 12:34:10 40° NW
ATLAS 3B R/B 2.8 12:29:15 10° NNW 12:36:00 76° ENE 12:42:55 10° SE
Cosmos 2278 Rocket 2.1 12:33:59 23° NNW 12:37:36 65° WSW 12:43:10 10° S
CZ-2C R/B 2.4 12:36:11 10° NNE 12:41:24 90° NNE 12:46:31 10° SSW
Cosmos 2333 Rocket 4.0 12:44:50 16° NW 12:44:50 16° NW 12:47:03 10° NNW
Cosmos 489 Rocket 4.4 12:40:10 10° NNW 12:46:19 62° WSW 12:52:29 10° S
CENTAUR R/B 3.2 12:38:04 10° NW 12:46:20 85° WSW 12:55:04 10° SSE
Centaur D AC-28 3.4 12:46:18 18° SSW 12:48:31 29° SSE 12:55:33 10° E
Cosmos 676 Rocket 3.9 12:43:56 13° SSW 12:48:35 73° WNW 12:53:50 10° NNE
Okean 1-7 Rocket 3.7 12:48:02 10° S 12:52:26 76° E 12:56:56 10° N
Cosmos 1953 2.1 12:49:31 10° NNW 12:53:32 72° W 12:57:29 10° S
CZ-4B R/B 2.6 12:52:11 10° N 12:56:07 77° WNW 12:59:51 10° SSW
Cosmos 407 Rocket 4.2 12:57:27 30° WNW 12:57:50 30° WNW 13:02:20 10° N
COSMO-SKYMED 1 4.1 12:53:57 10° SE 12:57:56 37° ENE 13:01:56 10° N
Meteor 1-4 Rocket 2.7 12:58:44 45° WNW 12:58:44 45° WNW 13:02:03 10° N
ATLAS 2AS CENTAUR R/B 3.9 12:56:41 24° WNW 12:59:45 31° NW 13:06:45 10° NNE
Cosmos 2219 Rocket 4.1 13:03:22 11° NW 13:03:22 11° NW 13:04:31 10° NNW
Cosmos 1707 3.6 13:04:01 29° WNW 13:04:01 29° WNW 13:06:58 10° NNW
PSLV R/B 2.4 13:03:31 70° WNW 13:03:41 75° NNW 13:06:19 10° ENE
Cosmos 1726 2.9 13:01:07 10° N 13:04:42 52° E 13:08:17 10° SSE
Cosmos 2228 2.8 13:01:50 10° N 13:06:05 77° W 13:10:18 10° S
Meteor 1-31 Rocket 2.8 13:02:57 10° N 13:06:39 51° WNW 13:10:19 10° SSW
Meteor 2-5 Rocket 4.3 13:02:16 10° S 13:07:56 63° E 13:13:46 10° NNE
Meteor 2-10 4.3 13:04:15 10° N 13:09:30 74° E 13:14:55 10° SSE
Cosmos 1726 Rocket 3.4 13:06:57 10° NNW 13:11:15 72° W 13:15:32 10° S
Cosmos 2237 Rocket 3.3 13:12:28 21° W 13:14:05 24° WNW 13:18:40 10° N
In-Cosmos 22 4.0 13:08:54 10° SSW 13:14:12 69° W 13:19:39 10° N
Cosmos 1674 2.6 13:16:41 10° S 13:20:22 84° E 13:24:06 10° N
Cosmos 1484 Rocket 2.6 13:18:57 10° N 13:22:46 82° WNW 13:26:38 10° SSW
RESURS DK-1 3.1 13:20:40 16° WSW 13:23:25 33° WNW 13:27:11 10° N
Helios 1A Rocket 3.5 13:20:25 10° NNE 13:24:33 61° ESE 13:28:38 10° S
Cosmos 962 Rocket 4.5 13:18:32 10° SSW 13:24:46 70° W 13:31:07 10° N
BREEZE-M DEB (TANK) 2.5 13:24:19 15° NW 13:26:00 49° NE 13:28:48 10° ESE
CZ-4B DEB 4.3 13:20:40 10° NNE 13:26:10 84° ESE 13:31:37 10° SSW
Cosmos 1850 Rocket 3.9 13:21:50 10° SSW 13:27:01 86° WNW 13:32:13 10° NNE
Cosmos 1356 3.7 13:25:50 10° NNW 13:29:09 44° W 13:32:27 10° SSW
Cosmos 2218 Rocket 4.4 13:23:28 10° S 13:29:48 70° E 13:36:06 10° NNE
Okean O Rocket 2.1 13:27:00 10° NNE 13:31:21 63° E 13:35:40 10° S
Cosmos 2369 Rocket 4.1 13:27:19 10° N 13:32:11 30° ENE 13:37:01 10° ESE
Cosmos 2154 Rocket 4.5 13:27:35 10° SW 13:33:13 36° WNW 13:38:55 10° N
Meteor 2-17 Rocket 4.4 13:27:43 10° SSW 13:33:47 74° W 13:39:51 10° N
Cosmos 2058 Rocket 3.1 13:29:42 10° NNW 13:34:04 62° W 13:38:27 10° S
PAYLOAD B 4.2 13:32:06 10° NNE 13:37:42 87° WNW 13:43:13 10° SSW
Iridium 51 4.2 13:35:58 10° N 13:39:39 80° E 13:43:08 10° S
CZ-4B R/B 3.4 13:37:14 10° NNE 13:42:33 77° ESE 13:47:50 10° S
Cosmos 1626 3.7 13:41:50 10° SSE 13:45:19 40° E 13:48:49 10° NNE
Milstar 3 Cent rocket 3.5 13:40:54 10° SW 13:45:23 27° S 13:49:19 10° ESE
SKYMED 2 3.6 13:41:37 10° S 13:45:53 60° W 13:50:11 10° NNW
SJ-12 4.0 13:43:10 10° N 13:47:10 55° WNW 13:51:12 10° SSW
ALOS 2.2 13:44:37 10° N 13:49:18 81° WNW 13:53:58 10° SSW
Cosmos 468 Rocket 4.1 13:45:51 10° NNW 13:51:02 82° ENE 13:56:09 10° SSE
SL-14 R/B 3.8 13:48:35 10° S 13:52:29 66° E 13:56:23 10° NNE
Cosmos 1570 Rocket 4.5 13:55:12 10° NNW 14:00:32 69° ENE 14:05:49 10° SSE
USA 234 3.9 13:54:40 10° SSE 14:00:34 36° SW 14:06:30 10° WNW
Cosmos 2341 Rocket 4.5 13:55:01 10° SW 14:00:45 38° WNW 14:06:31 10° N
Cosmos 1943 Rocket 2.9 13:55:10 10° NNW 14:00:46 59° ENE 14:06:21 10° SE
